Location: S�tio Afonso Gruber
(26.1760°S, 49.5250°W)
Time: 11:38:10
(UTC+00:00)

NANOSAT C BR1 - Visible Passes

Search period start: 30 November 2022 00:00
Search period end: 10 December 2022 00:00
Orbit: 582 x 596 km, 98.0° (Epoch: 29 November)

Date Brightness Start Highest point End Pass type
(mag) Time Alt. Az. Time Alt. Az. Time Alt. Az.
30 Nov ? 05:16:26 13° SSW 05:16:26 13° SSW 05:16:52 10° SSW visible
01 Dec ? 05:24:12 12° SSW 05:24:12 12° SSW 05:24:32 10° SSW visible
02 Dec ? 05:31:58 11° SSW 05:31:58 11° SSW 05:32:09 10° SSW visible
05 Dec ? 04:18:45 11° SSE 04:18:45 11° SSE 04:19:00 10° SSE visible
06 Dec ? 04:26:30 13° SSE 04:26:30 13° SSE 04:27:03 10° SSE visible
07 Dec ? 04:34:16 14° SSE 04:34:16 14° SSE 04:35:00 10° SSE visible
08 Dec ? 04:42:01 15° SSE 04:42:01 15° SSE 04:42:52 10° S visible
09 Dec ? 04:49:46 16° S 04:49:46 16° S 04:50:42 10° S visible
